Regional Weather Roundup
Issued by NWS Albany, NY

Home | Current Version | Previous Version | Graphics & Text | Print | Product List | Glossary Off
Versions: 1 2 3 4 5 6 7 8 9 10 11 12 13 14 15 16 17 18 19 20 21 22 23 24 25 26 27

000
ASUS41 KALY 202210
RWRALY

NEW YORK STATE HOURLY WEATHER ROUNDUP
NATIONAL WEATHER SERVICE ALBANY NY
600 PM EDT SUN MAY 20 2018

NOTE: "FAIR" INDICATES FEW OR NO CLOUDS BELOW 12,000 FEET WITH NO
SIGNIFICANT WEATHER AND/OR NO OBSTRUCTIONS TO VISIBILITY.

NYZ032-033-038>043-046>054-057>066-NYZ062>081-082-084-202300-
EAST


CITY           SKY/WX    TMP DP  RH WIND       PRES   REMARKS
ALBANY         PTSUNNY   68  55  63 W20G29    29.98R
GLENS FALLS    FAIR      69  53  56 NW12      29.97R
POUGHKEEPSIE   CLOUDY    76  59  55 N9        29.94R
NEWBURGH       PTSUNNY   75  61  60 NW12      29.98R
MONTGOMERY     FAIR      75  58  55 NW12      29.96R
WHITE PLAINS   FAIR      73  62  68 NW17      29.95R
ISLIP          CLOUDY    77  64  64 NW13      29.93R
NEW YORK CITY  PTSUNNY   77  60  55 NW13      29.93R
CENTRAL PARK   PTSUNNY   78  61  55 NW7G17    29.97R
$$

NYZ005>009-017-018-044>046-055-056-202300-
CENTRAL


CITY           SKY/WX    TMP DP  RH WIND       PRES   REMARKS
FULTON         FAIR      61  53  75 NW12      30.09R
SYRACUSE       PTSUNNY   64  57  78 NW7       30.07R
ROME           FAIR      66  54  65 W13       30.06R
ELMIRA         CLOUDY    65  57  75 NW9       30.09S
BINGHAMTON     CLOUDY    60  54  80 NW7       30.09R
$$

NYZ026>034-041>043-087-202300-
NORTH


CITY           SKY/WX    TMP DP  RH WIND       PRES   REMARKS
WATERTOWN      FAIR      64  51  62 W8        30.06R
FORT DRUM      NOT AVBL
OGDENSBURG     FAIR      67  43  41 NW6       30.04S
MASSENA        FAIR      64  43  46 W13       30.04R
SARANAC LAKE   PTSUNNY   57  47  69 VRB7      30.02R
PLATTSBURGH    FAIR      65  48  54 NW8G17    29.98R
$$

NYZ001>004-010>016-019>021-085-202300-
WEST


CITY           SKY/WX    TMP DP  RH WIND       PRES   REMARKS
NIAGARA FALLS  CLOUDY    69  50  50 N7        30.10S
BUFFALO        PTSUNNY   64  52  64 SW14      30.12R
DUNKIRK        FAIR      63  54  72 SW9       30.13F
JAMESTOWN      PTSUNNY   60  53  77 W6        30.15
WELLSVILLE     CLOUDY    61  54  77 NW7       30.15S
ROCHESTER      PTSUNNY   69  55  60 NW9       30.09R
PENN YAN       CLOUDY    63  55  75 CALM      30.10S
$$

             KEY
       WCI = WIND CHILL INDEX
       VSB = VISIBILITY
       HX  = HEAT INDEX
$$




USA.gov is the U.S. government's official web portal to all federal, state and local government web resources and services.